KC5TIL-3 Weather Reports


time (UTC)temp
F
wind
direction
speed
knots
gust
knots
rain 1hr
in
rain 24hr
in
rain mn
in
humidity
%
barometer
mb
20260509211758 88 5 5.2 3.5 0.00 0.00 0.00 15 1005.8
20260509211257 89 291 0.0 4.3 0.00 0.00 0.00 15 1005.8
20260509210744 88 4 2.6 6.1 0.00 0.00 0.00 13 1006.8
20260509210246 88 351 2.6 6.1 0.00 0.00 0.00 13 1006.8
20260509205745 88 15 4.3 6.1 0.00 0.00 0.00 13 1006.8
20260509204749 91 307 2.6 3.5 0.00 0.00 0.00 12 1006.8
20260509204247 90 307 0.0 4.3 0.00 0.00 0.00 12 1006.8
20260509203749 90 308 0.0 4.3 0.00 0.00 0.00 12 1006.8
20260509203251 89 312 2.6 3.5 0.00 0.00 0.00 12 1006.8
20260509202750 88 303 3.5 6.1 0.00 0.00 0.00 13 1006.8
20260509201248 88 0 3.5 4.3 0.00 0.00 0.00 13 1006.8
20260509200749 88 8 3.5 5.2 0.00 0.00 0.00 15 1006.8
20260509200252 88 69 3.5 7.8 0.00 0.00 0.00 15 1006.8
20260509195750 87 134 6.1 6.1 0.00 0.00 0.00 15 1006.8
20260509194252 87 309 0.0 3.5 0.00 0.00 0.00 15 1007.8
20260509192755 87 17 5.2 6.1 0.00 0.00 0.00 18 1007.8
20260509191759 88 138 3.5 4.3 0.00 0.00 0.00 18 1007.8
20260509191257 87 6 3.5 6.1 0.00 0.00 0.00 18 1007.8
20260509190256 86 33 3.5 5.2 0.00 0.00 0.00 19 1007.8
20260509185750 87 40 3.5 6.1 0.00 0.00 0.00 18 1007.8
20260509185252 86 262 4.3 6.1 0.00 0.00 0.00 19 1007.8
20260509184753 86 119 2.6 6.1 0.00 0.00 0.00 19 1007.8
20260509184253 86 55 3.5 7.8 0.00 0.00 0.00 19 1007.8
20260509183256 86 316 3.5 7.8 0.00 0.00 0.00 19 1007.8
20260509182751 86 169 2.6 8.7 0.00 0.00 0.00 19 1007.8
20260509182252 85 286 3.5 6.1 0.00 0.00 0.00 19 1007.8
20260509181753 84 26 3.5 5.2 0.00 0.00 0.00 20 1007.8
20260509180256 82 17 4.3 7.8 0.00 0.00 0.00 21 1007.8
20260509175745 83 17 3.5 6.1 0.00 0.00 0.00 20 1007.8
20260509174749 85 13 0.0 3.5 0.00 0.00 0.00 20 1007.8
20260509174247 83 8 0.0 6.1 0.00 0.00 0.00 21 1007.8
20260509173251 82 22 5.2 6.1 0.00 0.00 0.00 21 1008.8
20260509172740 83 328 3.5 7.0 0.00 0.00 0.00 22 1008.8
20260509171739 82 15 3.5 6.1 0.00 0.00 0.00 22 1008.8
20260509170241 81 321 4.3 6.1 0.00 0.00 0.00 21 1008.8
20260509165242 81 332 2.6 7.0 0.00 0.00 0.00 25 1008.8
20260509164744 81 330 3.5 6.1 0.00 0.00 0.00 25 1008.8
20260509164228 80 1 4.3 6.1 0.00 0.00 0.00 28 1008.8
20260509163222 79 286 3.5 5.2 0.00 0.00 0.00 30 1008.8
20260509162720 80 296 3.5 5.2 0.00 0.00 0.00 28 1008.8
20260509161720 80 332 2.6 6.1 0.00 0.00 0.00 28 1008.8
20260509160714 79 325 0.0 5.2 0.00 0.00 0.00 30 1008.8
20260509160216 78 273 3.5 5.2 0.00 0.00 0.00 29 1008.8
20260509154718 78 340 3.5 7.8 0.00 0.00 0.00 30 1008.8
20260509153719 77 27 4.3 6.1 0.00 0.00 0.00 31 1008.8
20260509153220 76 13 4.3 7.8 0.00 0.00 0.00 33 1008.8
20260509152221 75 36 6.1 8.7 0.00 0.00 0.00 35 1008.8
20260509151718 76 342 5.2 8.7 0.00 0.00 0.00 36 1008.8
20260509150718 75 351 4.3 7.8 0.00 0.00 0.00 34 1008.8
20260509145719 75 27 6.1 7.0 0.00 0.00 0.00 35 1008.8
20260509145221 75 282 2.6 6.1 0.00 0.00 0.00 36 1008.8
20260509144722 74 9 3.5 8.7 0.00 0.00 0.00 35 1008.8
20260509143723 74 294 4.3 7.8 0.00 0.00 0.00 39 1008.8
20260509143225 74 356 5.2 7.0 0.00 0.00 0.00 41 1008.8
20260509142723 74 309 3.5 6.1 0.00 0.00 0.00 42 1008.8
20260509142225 74 320 3.5 5.2 0.00 0.00 0.00 45 1008.8
20260509141727 73 293 2.6 6.1 0.00 0.00 0.00 47 1008.8
20260509140718 73 291 3.5 5.2 0.00 0.00 0.00 48 1008.8
20260509135718 73 12 3.5 5.2 0.00 0.00 0.00 49 1008.8
20260509135219 72 250 3.5 6.1 0.00 0.00 0.00 51 1008.8
20260509134210 72 351 3.5 7.8 0.00 0.00 0.00 51 1008.8
20260509133712 71 295 3.5 6.1 0.00 0.00 0.00 50 1008.8
20260509133214 72 292 2.6 5.2 0.00 0.00 0.00 51 1008.8
20260509132713 71 330 2.6 4.3 0.00 0.00 0.00 51 1008.8
20260509132215 71 308 2.6 6.1 0.00 0.00 0.00 52 1008.8
20260509131717 70 337 4.3 7.8 0.00 0.00 0.00 53 1008.8
20260509131215 70 69 5.2 6.1 0.00 0.00 0.00 53 1008.8
20260509130712 70 279 3.5 7.0 0.00 0.00 0.00 53 1008.8
20260509130214 70 305 2.6 7.0 0.00 0.00 0.00 53 1008.8
20260509125713 70 314 2.6 8.7 0.00 0.00 0.00 53 1008.8
20260509124702 70 293 4.3 6.1 0.00 0.00 0.00 51 1008.8
20260509124201 70 351 3.5 7.0 0.00 0.00 0.00 51 1008.8
20260509123703 70 289 4.3 5.2 0.00 0.00 0.00 51 1008.8
20260509123205 70 314 2.6 3.5 0.00 0.00 0.00 51 1008.8
20260509122703 70 246 0.0 5.2 0.00 0.00 0.00 53 1008.8
20260509121206 69 320 3.5 3.5 0.00 0.00 0.00 54 1007.8
20260509120708 69 351 0.0 3.5 0.00 0.00 0.00 54 1007.8
20260509120209 69 347 0.0 6.1 0.00 0.00 0.00 53 1007.8
20260509115708 69 356 2.6 6.1 0.00 0.00 0.00 53 1007.8
20260509114712 69 337 3.5 6.1 0.00 0.00 0.00 52 1007.8
20260509114210 69 329 2.6 4.3 0.00 0.00 0.00 53 1007.8
20260509113713 69 306 2.6 3.5 0.00 0.00 0.00 53 1007.8
20260509113214 69 305 0.0 0.0 0.00 0.00 0.00 52 1007.8
20260509112713 69 306 0.0 0.0 0.00 0.00 0.00 51 1007.8
20260509112215 69 306 0.0 3.5 0.00 0.00 0.00 50 1007.8
20260509111717 69 306 0.0 4.3 0.00 0.00 0.00 50 1007.8
20260509111215 69 305 2.6 5.2 0.00 0.00 0.00 50 1007.8
20260509110717 69 304 2.6 6.1 0.00 0.00 0.00 49 1007.8
20260509110219 69 330 3.5 6.1 0.00 0.00 0.00 50 1007.8
20260509105718 69 268 2.6 5.2 0.00 0.00 0.00 51 1007.8
20260509104721 70 301 4.3 7.0 0.00 0.00 0.00 53 1007.8
20260509103722 70 286 3.5 3.5 0.00 0.00 0.00 55 1006.8
20260509103219 71 302 2.6 4.3 0.00 0.00 0.00 56 1006.8
20260509102718 71 303 2.6 3.5 0.00 0.00 0.00 60 1006.8
20260509102219 71 305 2.6 3.5 0.00 0.00 0.00 60 1007.8
20260509101721 71 307 2.6 5.2 0.00 0.00 0.00 60 1007.8
20260509100717 71 298 2.6 6.1 0.00 0.00 0.00 61 1006.8
20260509095718 71 329 5.2 7.8 0.00 0.00 0.00 64 1006.8
20260509095220 72 9 6.1 9.6 0.00 0.00 0.00 66 1006.8
20260509094722 72 3 6.1 11.3 0.00 0.00 0.00 68 1006.8
20260509094221 72 49 8.7 9.6 0.00 0.00 0.00 67 1006.8
20260509093722 73 283 6.1 11.3 0.00 0.00 0.00 67 1003.8
20260509093224 73 216 7.0 7.0 0.00 0.00 0.00 67 1003.8
20260509092723 73 127 4.3 7.8 0.00 0.00 0.00 67 1003.8
20260509092224 73 155 3.5 11.3 0.00 0.00 0.00 66 1004.8
20260509091726 73 166 6.1 9.6 0.00 0.00 0.00 66 1004.8
20260509090722 73 228 5.2 8.7 0.00 0.00 0.00 66 1004.8
20260509085723 72 203 6.1 11.3 0.00 0.00 0.00 66 1004.8
20260509085225 72 176 7.0 12.2 0.00 0.00 0.00 67 1004.8
20260509084727 72 186 6.1 9.6 0.00 0.00 0.00 66 1004.8
20260509083727 72 223 6.1 9.6 0.00 0.00 0.00 69 1005.8
20260509083229 72 154 6.1 8.7 0.00 0.00 0.00 70 1005.8
20260509082728 72 182 6.1 10.4 0.00 0.00 0.00 69 1005.8
20260509082229 72 195 7.8 9.6 0.00 0.00 0.00 69 1005.8
20260509081731 72 213 6.1 8.7 0.00 0.00 0.00 70 1005.8
20260509081230 72 213 5.2 7.8 0.00 0.00 0.00 71 1005.8
20260509080732 72 187 5.2 7.8 0.00 0.00 0.00 71 1006.8
20260509080234 72 227 4.3 8.7 0.00 0.00 0.00 70 1006.8
20260509075732 72 125 5.2 7.0 0.00 0.00 0.00 69 1006.8
20260509075234 72 144 4.3 7.0 0.00 0.00 0.00 69 1007.8
20260509074224 72 154 4.3 5.2 0.00 0.00 0.00 70 1007.8
20260509073726 72 145 3.5 7.0 0.00 0.00 0.00 70 1008.8
20260509073228 72 193 4.3 7.8 0.00 0.00 0.00 70 1008.8
20260509072727 72 223 6.1 7.8 0.00 0.00 0.00 70 1008.8
20260509072228 72 207 5.2 7.8 0.00 0.00 0.00 71 1008.8
20260509071730 72 223 5.2 7.0 0.00 0.00 0.00 73 1008.8
20260509071229 73 253 3.5 6.1 0.00 0.00 0.00 75 1008.8
20260509070731 73 249 3.5 10.4 0.00 0.00 0.00 76 1009.8
20260509070228 73 258 8.7 8.7 0.00 0.00 0.00 76 1009.8
20260509065727 73 302 6.1 7.0 0.00 0.00 0.00 76 1009.8
20260509064731 73 300 5.2 6.1 0.00 0.00 0.00 76 1009.8
20260509064229 73 272 4.3 5.2 0.00 0.00 0.00 76 1009.8
20260509063233 73 286 3.5 5.2 0.00 0.00 0.00 77 1009.8
20260509061735 73 344 2.6 3.5 0.00 0.00 0.00 77 1008.8
20260509060737 73 7 2.6 3.5 0.00 0.00 0.00 77 1008.8
20260509060238 73 7 0.0 3.5 0.00 0.00 0.00 77 1008.8
20260509055736 73 7 2.6 6.1 0.00 0.00 0.00 77 1008.8
20260509054740 72 18 5.2 7.0 0.00 0.00 0.00 76 1008.8
20260509053243 72 338 3.5 3.5 0.00 0.00 0.00 74 1008.8
20260509052742 72 139 2.6 0.0 0.00 0.00 0.00 74 1008.8
20260509052244 72 147 0.0 2.6 0.00 0.00 0.00 74 1007.8
20260509051244 72 147 2.6 4.3 0.00 0.00 0.00 73 1007.8
20260509050746 72 170 0.0 3.5 0.00 0.00 0.00 72 1007.8
20260509050247 72 185 2.6 4.3 0.00 0.00 0.00 72 1007.8
20260509044750 72 113 3.5 4.3 0.00 0.00 0.00 70 1007.8
20260509043751 72 127 3.5 5.2 0.00 0.00 0.00 70 1007.8
20260509043252 73 129 4.3 5.2 0.00 0.00 0.00 69 1007.8
20260509042253 73 128 3.5 5.2 0.00 0.00 0.00 69 1008.8
20260509041755 73 124 3.5 4.3 0.00 0.00 0.00 68 1008.8
20260509040755 73 125 0.0 5.2 0.00 0.00 0.00 67 1007.8
20260509040257 73 124 4.3 4.3 0.00 0.00 0.00 67 1007.8
20260509035756 73 125 3.5 6.1 0.00 0.00 0.00 66 1007.8
20260509035257 73 127 3.5 6.1 0.00 0.00 0.00 66 1007.8
20260509034759 73 137 4.3 7.0 0.00 0.00 0.00 66 1007.8
20260509034259 73 218 0.0 7.8 0.00 0.00 0.00 66 1007.8
20260509033800 73 172 3.5 7.8 0.00 0.00 0.00 65 1007.8
20260509033303 73 212 5.2 7.0 0.00 0.00 0.00 65 1007.8
20260509032756 73 137 2.6 7.0 0.00 0.00 0.00 65 1007.8
20260509032257 73 199 3.5 6.1 0.00 0.00 0.00 64 1006.8
20260509031754 73 148 3.5 6.1 0.00 0.00 0.00 64 1006.8
20260509031253 73 188 3.5 7.0 0.00 0.00 0.00 64 1006.8
20260509030755 73 186 4.3 7.0 0.00 0.00 0.00 63 1006.8
20260509030257 73 132 5.2 8.7 0.00 0.00 0.00 63 1006.8
20260509025756 73 158 5.2 7.0 0.00 0.00 0.00 63 1006.8
20260509025253 73 139 4.3 9.6 0.00 0.00 0.00 62 1006.8
20260509024754 73 129 6.1 8.7 0.00 0.00 0.00 62 1006.8
20260509024254 73 134 6.1 7.8 0.00 0.00 0.00 61 1006.8
20260509023247 74 138 5.2 8.7 0.00 0.00 0.00 60 1006.8
20260509022747 74 157 6.1 7.0 0.00 0.00 0.00 60 1006.8
20260509022248 74 134 5.2 7.0 0.00 0.00 0.00 60 1006.8
20260509021750 74 200 3.5 7.8 0.00 0.00 0.00 59 1006.8
20260509021249 74 143 4.3 7.0 0.00 0.00 0.00 59 1006.8
20260509020750 74 121 6.1 6.1 0.00 0.00 0.00 59 1006.8
20260509020248 74 121 0.0 7.0 0.00 0.00 0.00 58 1006.8
20260509015747 74 117 4.3 6.1 0.00 0.00 0.00 58 1006.8
20260509015249 74 116 4.3 6.1 0.00 0.00 0.00 57 1006.8
20260509014750 74 119 5.2 5.2 0.00 0.00 0.00 56 1006.8
20260509014249 74 124 4.3 4.3 0.00 0.00 0.00 56 1006.8
20260509013750 74 126 3.5 6.1 0.00 0.00 0.00 55 1006.8
20260509013253 74 118 4.3 6.1 0.00 0.00 0.00 55 1006.8
20260509012751 74 129 4.3 5.2 0.00 0.00 0.00 54 1006.8
20260509012253 74 128 3.5 6.1 0.00 0.00 0.00 53 1005.8
20260509011254 74 174 0.0 5.2 0.00 0.00 0.00 52 1005.8
20260509010755 74 143 2.6 4.3 0.00 0.00 0.00 52 1005.8
20260509010257 74 146 0.0 4.3 0.00 0.00 0.00 52 1005.8
20260509005257 74 123 3.5 6.1 0.00 0.00 0.00 52 1005.8
20260509004751 74 123 0.0 6.1 0.00 0.00 0.00 52 1005.8
20260509003750 74 127 3.5 5.2 0.00 0.00 0.00 51 1005.8
20260509003252 74 181 3.5 6.1 0.00 0.00 0.00 51 1005.8
20260509002752 74 131 0.0 6.1 0.00 0.00 0.00 51 1005.8
20260509002253 74 218 3.5 5.2 0.00 0.00 0.00 50 1005.8
20260509000755 74 170 0.0 3.5 0.00 0.00 0.00 49 1005.8
20260508235756 74 150 3.5 6.1 0.00 0.00 0.00 50 1005.8
20260508234258 74 183 0.0 7.0 0.00 0.00 0.00 49 1006.8
20260508233800 74 134 4.3 6.1 0.00 0.00 0.00 49 1005.8
20260508232800 74 189 3.5 5.2 0.00 0.00 0.00 48 1005.8
20260508232257 74 125 2.6 6.1 0.00 0.00 0.00 47 1006.8
20260508231258 74 142 2.6 5.2 0.00 0.00 0.00 46 1006.8
20260508230759 74 208 3.5 6.1 0.00 0.00 0.00 47 1006.8
20260508225800 73 133 4.3 7.0 0.00 0.00 0.00 47 1006.8
20260508225302 74 152 2.6 8.7 0.00 0.00 0.00 46 1005.8
20260508224302 74 165 4.3 8.7 0.00 0.00 0.00 45 1005.8
20260508223804 74 132 6.1 9.6 0.00 0.00 0.00 45 1006.8
20260508223306 73 130 5.2 7.8 0.00 0.00 0.00 45 1006.8
20260508222805 74 206 5.2 8.7 0.00 0.00 0.00 45 1006.8
20260508221307 73 150 5.2 9.6 0.00 0.00 0.00 49 1006.8
20260508220804 72 214 5.2 9.6 0.00 0.00 0.00 49 1006.8
20260508215805 72 161 6.1 9.6 0.00 0.00 0.00 49 1006.8
20260508215306 72 146 6.1 10.4 0.00 0.00 0.00 48 1006.8
20260508214258 72 228 3.5 9.6 0.00 0.00 0.00 45 1006.8
20260508213746 72 205 4.3 8.7 0.00 0.00 0.00 46 1006.8
20260508212737 72 220 3.5 7.0 0.00 0.00 0.00 45 1006.8